TimePST,TemperatureF,Dew PointF,Humidity,Sea Level PressureIn,VisibilityMPH,Wind Direction,Wind SpeedMPH,Gust SpeedMPH,PrecipitationIn,Events,Conditions,WindDirDegrees,DateUTC
12:45 AM,48.2,46.4,93,30.05,6.0,SW,4.6,-,0.02,Rain,Light Rain,220,2012-12-05 08:45:00
12:54 AM,48.0,46.9,96,30.06,10.0,SSW,4.6,-,0.02,Rain,Light Rain,210,2012-12-05 08:54:00
1:54 AM,48.0,46.0,93,30.09,10.0,SSW,6.9,-,0.01,,Overcast,200,2012-12-05 09:54:00
2:54 AM,46.9,46.0,97,30.12,10.0,Calm,Calm,-,0.00,,Overcast,0,2012-12-05 10:54:00
3:54 AM,46.0,45.0,96,30.13,10.0,SSE,3.5,-,N/A,,Overcast,160,2012-12-05 11:54:00
4:54 AM,46.0,45.0,96,30.14,10.0,SSE,4.6,-,N/A,,Overcast,160,2012-12-05 12:54:00
6:54 AM,42.1,42.1,100,30.18,10.0,SE,4.6,-,N/A,,Mostly Cloudy,140,2012-12-05 14:54:00
7:36 AM,41.0,41.0,100,30.18,2.0,South,5.8,-,N/A,Fog,Scattered Clouds,170,2012-12-05 15:36:00
7:47 AM,39.2,39.2,100,30.18,0.8,South,4.6,-,N/A,Fog,Scattered Clouds,190,2012-12-05 15:47:00
7:54 AM,39.2,39.2,100,30.19,1.5,WSW,3.5,-,N/A,Fog,Scattered Clouds,240,2012-12-05 15:54:00
8:06 AM,41.0,41.0,100,30.19,1.5,Calm,Calm,-,N/A,Fog,Mostly Cloudy,0,2012-12-05 16:06:00
8:26 AM,44.6,42.8,93,30.20,1.5,Calm,Calm,-,N/A,Fog,Mostly Cloudy,0,2012-12-05 16:26:00
8:37 AM,44.6,44.6,100,30.20,0.5,Calm,Calm,-,N/A,Fog,Fog,0,2012-12-05 16:37:00
8:42 AM,44.6,44.6,100,30.20,0.2,West,3.5,-,N/A,Fog,Fog,270,2012-12-05 16:42:00
8:54 AM,45.0,45.0,100,30.21,0.2,Calm,Calm,-,N/A,Fog,Fog,0,2012-12-05 16:54:00
9:06 AM,44.6,44.6,100,30.21,0.5,Calm,Calm,-,N/A,Fog,Fog,0,2012-12-05 17:06:00
9:54 AM,46.0,45.0,96,30.23,2.0,Calm,Calm,-,N/A,,Overcast,0,2012-12-05 17:54:00
10:23 AM,46.4,44.6,93,30.23,5.0,SSW,3.5,-,N/A,,Overcast,210,2012-12-05 18:23:00
10:54 AM,46.0,45.0,96,30.25,7.0,Calm,Calm,-,N/A,,Overcast,0,2012-12-05 18:54:00
11:35 AM,46.4,44.6,93,30.24,8.0,WSW,3.5,-,0.00,Rain,Light Rain,250,2012-12-05 19:35:00
11:48 AM,48.2,44.6,87,30.24,9.0,SSW,3.5,-,0.01,Rain,Light Rain,200,2012-12-05 19:48:00
11:54 AM,46.9,45.0,93,30.24,10.0,SSW,3.5,-,0.01,Rain,Light Rain,200,2012-12-05 19:54:00
12:54 PM,50.0,42.1,74,30.24,10.0,Calm,Calm,-,0.01,,Mostly Cloudy,0,2012-12-05 20:54:00
1:54 PM,50.0,39.9,68,30.22,10.0,South,3.5,-,N/A,,Scattered Clouds,170,2012-12-05 21:54:00
2:54 PM,51.1,39.9,66,30.22,10.0,SW,3.5,-,N/A,,Scattered Clouds,230,2012-12-05 22:54:00
3:54 PM,50.0,42.1,74,30.23,10.0,Calm,Calm,-,N/A,,Mostly Cloudy,0,2012-12-05 23:54:00
4:54 PM,48.0,42.1,80,30.23,10.0,Calm,Calm,-,N/A,,Mostly Cloudy,0,2012-12-06 00:54:00
5:54 PM,46.9,42.1,83,30.24,10.0,NW,6.9,-,N/A,,Overcast,320,2012-12-06 01:54:00
6:54 PM,45.0,42.1,90,30.24,10.0,Calm,Calm,-,N/A,,Overcast,0,2012-12-06 02:54:00
7:54 PM,45.0,42.1,90,30.25,10.0,Calm,Calm,-,N/A,,Overcast,0,2012-12-06 03:54:00
8:54 PM,45.0,42.1,90,30.26,10.0,Calm,Calm,-,N/A,,Overcast,0,2012-12-06 04:54:00
9:54 PM,43.0,41.0,93,30.26,10.0,Calm,Calm,-,N/A,,Overcast,0,2012-12-06 05:54:00
10:54 PM,39.0,37.9,96,30.27,10.0,WSW,3.5,-,N/A,,Partly Cloudy,250,2012-12-06 06:54:00
11:54 PM,37.0,37.0,100,30.27,10.0,SW,5.8,-,N/A,,Clear,220,2012-12-06 07:54:00